Content
SEND FEEDBACK

Daily
Averages
Monthly
Summary
United States of America

BULLHEAD CITY, ARIZONA


Home > North America > United States > Arizona
Elevation: 580 feet     Latitude: 35 07N     Longitude: 114 36W

WEATHER
 
SELECT A DAY
Number of Records: 182,117;   Date Range: 7/1/96 - 9/16/14
 
SHARE

PRINT THIS DATA

[ ← Previous Day ]
WEATHER ALMANAC - JANUARY 31, 2013
[ Next Day → ]
[ °C ]   °F
Weather ElementAverageHighLow
Temperature55.1 °F66.2 °F (1:55 pm)41 °F (4:15 am)
Dewpoint33.7 °F39.2 °F (8:55 am)30.2 °F (3:15 pm)
Humidity48.9 %87 % (5:35 am)26 % (3:15 pm)
Barometer30.23 in30.30 in (1:55 am)30.13 in (5:35 pm)
Wind Speed9.8 mph24.2 mph (3:35 pm)
Wind Gust28.8 mph (3:15 pm)
Weather ElementAverage
Visibility10 mi
Wind DirectionESE (114.2 °)

Weather ElementTotal
Precipitation---
Heating Degree Days11.4 (Base 65)
Growing Degree Days3.6 (Base 50)
Averaged from 69 records on January 31, 2013
WEATHER CONDITIONS BREAKOUT
WIND DIRECTION BREAKOUT
WEATHER BY HOUR - JANUARY 31, 2013
[ °C ]   °F
Local TimeTemperatureDewpointHumidityBarometerVisibilityWind DirectionWind SpeedGust SpeedPrecipitationEventsConditions
12:35 AM46.4 °F35.6 °F66 %30.28 in10.0 miNE (40°)3.5 mphClear
12:55 AM48.2 °F35.6 °F62 %30.28 in10.0 miNNE (30°)3.5 mphClear
1:15 AM44.6 °F37.4 °F76 %30.29 in10.0 miEast (100°)3.5 mphClear
1:35 AM46.4 °F35.6 °F66 %30.29 in10.0 miENE (70°)5.8 mphClear
1:55 AM48.2 °F35.6 °F62 %30.30 in10.0 miCalmClear
2:15 AM46.4 °F35.6 °F66 %30.30 in10.0 miCalmClear
2:35 AM44.6 °F35.6 °F71 %30.30 in10.0 miEast (100°)3.5 mphClear
2:55 AM42.8 °F35.6 °F76 %30.30 in10.0 miCalmClear
3:15 AM42.8 °F35.6 °F76 %30.29 in10.0 miCalmClear
3:35 AM44.6 °F35.6 °F71 %30.29 in10.0 miCalmClear
3:55 AM44.6 °F35.6 °F71 %30.29 in10.0 miCalmClear
4:15 AM41.0 °F35.6 °F81 %30.28 in10.0 miCalmClear
4:35 AM44.6 °F35.6 °F71 %30.28 in10.0 miCalmClear
4:55 AM42.8 °F35.6 °F76 %30.28 in10.0 miCalmClear
5:15 AM42.8 °F35.6 °F76 %30.28 in10.0 miCalmClear
5:35 AM41.0 °F37.4 °F87 %30.28 in10.0 miSouth (170°)3.5 mphClear
5:55 AM42.8 °F35.6 °F76 %30.28 in10.0 miESE (110°)3.5 mphClear
6:15 AM41.0 °F35.6 °F81 %30.28 in10.0 miCalmClear
6:55 AM44.6 °F37.4 °F76 %30.28 in10.0 miNE (40°)4.6 mphClear
7:15 AM41.0 °F37.4 °F87 %30.28 in10.0 miCalmClear
7:35 AM42.8 °F37.4 °F81 %30.28 in10.0 miCalmClear
7:55 AM44.6 °F37.4 °F76 %30.28 in10.0 miNW (320°)3.5 mphClear
8:15 AM44.6 °F37.4 °F76 %30.28 in10.0 miNNW (340°)4.6 mphClear
8:35 AM44.6 °F37.4 °F76 %30.28 in10.0 miNorth (10°)5.8 mphClear
8:55 AM46.4 °F39.2 °F76 %30.29 in10.0 miNNW (340°)4.6 mphClear
9:15 AM48.2 °F37.4 °F66 %30.28 in10.0 miNorth (360°)12.7 mphClear
9:35 AM53.6 °F32.0 °F44 %30.29 in10.0 miNorth (10°)13.8 mph18.4 mphClear
9:55 AM55.4 °F32.0 °F41 %30.28 in10.0 miNorth (10°)15.0 mphClear
10:15 AM55.4 °F32.0 °F41 %30.28 in10.0 miNNE (20°)16.1 mphClear
10:35 AM55.4 °F32.0 °F41 %30.29 in10.0 miNorth (10°)16.1 mph21.9 mphClear
10:55 AM57.2 °F32.0 °F38 %30.29 in10.0 miNNE (20°)13.8 mph19.6 mphClear
11:15 AM57.2 °F32.0 °F38 %30.29 in10.0 miNNE (20°)13.8 mph20.7 mphClear
11:35 AM59.0 °F32.0 °F36 %30.29 in10.0 miNNE (20°)15.0 mph20.7 mphClear
11:55 AM60.8 °F32.0 °F34 %30.28 in10.0 miNorth (10°)17.3 mphClear
12:15 PM62.6 °F32.0 °F32 %30.27 in10.0 miNorth (10°)18.4 mph23.0 mphClear
12:35 PM62.6 °F32.0 °F32 %30.26 in10.0 miNorth (10°)20.7 mph26.5 mphClear
12:55 PM64.4 °F32.0 °F30 %30.25 in10.0 miNorth (10°)16.1 mph25.3 mphClear
1:15 PM64.4 °F32.0 °F30 %30.24 in10.0 miNorth (350°)18.4 mph24.2 mphClear
1:35 PM64.4 °F32.0 °F30 %30.23 in10.0 miNorth (360°)19.6 mph26.5 mphClear
1:55 PM66.2 °F32.0 °F28 %30.22 in10.0 miNorth (360°)19.6 mph27.6 mphClear
2:15 PM66.2 °F32.0 °F28 %30.22 in10.0 miNorth (350°)20.7 mph26.5 mphClear
2:35 PM66.2 °F32.0 °F28 %30.21 in10.0 miNorth (360°)20.7 mph26.5 mphClear
2:55 PM66.2 °F32.0 °F28 %30.19 in10.0 miNorth (350°)23.0 mph27.6 mphClear
3:15 PM66.2 °F30.2 °F26 %30.18 in10.0 miNorth (360°)23.0 mph28.8 mphClear
3:35 PM66.2 °F30.2 °F26 %30.17 in10.0 miNorth (350°)24.2 mph27.6 mphClear
3:55 PM66.2 °F30.2 °F26 %30.16 in10.0 miNorth (350°)18.4 mph26.5 mphClear
4:15 PM66.2 °F32.0 °F28 %30.16 in10.0 miNorth (360°)20.7 mph26.5 mphClear
4:35 PM66.2 °F32.0 °F28 %30.15 in10.0 miNorth (360°)18.4 mphClear
4:55 PM66.2 °F32.0 °F28 %30.15 in10.0 miNorth (350°)17.3 mph23.0 mphClear
5:15 PM66.2 °F30.2 °F26 %30.14 in10.0 miNorth (360°)18.4 mphClear
5:35 PM66.2 °F32.0 °F28 %30.13 in10.0 miNorth (360°)19.6 mphClear
5:55 PM66.2 °F32.0 °F28 %30.14 in10.0 miNorth (10°)16.1 mph20.7 mphClear
6:15 PM64.4 °F32.0 °F30 %30.14 in10.0 miNorth (10°)15.0 mph20.7 mphClear
6:35 PM64.4 °F32.0 °F30 %30.14 in10.0 miNNE (20°)13.8 mphClear
6:55 PM62.6 °F32.0 °F32 %30.15 in10.0 miNNE (30°)13.8 mphClear
7:15 PM62.6 °F32.0 °F32 %30.16 in10.0 miNE (40°)10.4 mphClear
7:35 PM62.6 °F32.0 °F32 %30.17 in10.0 miNE (40°)10.4 mphClear
7:55 PM62.6 °F32.0 °F32 %30.17 in10.0 miNNE (30°)11.5 mphClear
8:15 PM62.6 °F32.0 °F32 %30.18 in10.0 miNNE (30°)13.8 mphClear
8:35 PM59.0 °F32.0 °F36 %30.18 in10.0 miENE (60°)8.1 mphClear
8:55 PM57.2 °F32.0 °F38 %30.19 in10.0 miNNE (20°)3.5 mphClear
9:15 PM59.0 °F32.0 °F36 %30.19 in10.0 miCalmClear
9:35 PM59.0 °F32.0 °F36 %30.19 in10.0 miCalmClear
9:55 PM57.2 °F32.0 °F38 %30.18 in10.0 miNNE (30°)9.2 mphClear
10:15 PM59.0 °F32.0 °F36 %30.18 in10.0 miNorth (10°)9.2 mphClear
10:35 PM57.2 °F32.0 °F38 %30.18 in10.0 miNNW (340°)3.5 mphClear
11:15 PM55.4 °F35.6 °F47 %30.18 in10.0 miNorth (10°)8.1 mphClear
11:35 PM53.6 °F35.6 °F51 %30.19 in10.0 miNNE (20°)6.9 mphClear
11:55 PM55.4 °F35.6 °F47 %30.19 in10.0 miNNE (20°)4.6 mphClear
Hourly data recorded from KIFP, located miles away from Bullhead City, Arizona







STORIES FROM OUR PARTNERS